Location: Consuma
(43.7833°N, 11.5833°E)
Time: 15:36:48
(UTC+00:00)

Cosmos 2123 Rocket - Pass Details

Date: 17 February 2020
Orbit: 960 x 993 km, 82.9° (Epoch: 27 March)

Event Time Altitude Azimuth Distance (km) Brightness Sun altitude
Rises 05:20:50 0° 188° (S) 3,693 7.0 -9.6°
Reaches altitude 10° 05:23:20 10° 189° (S) 2,747 6.4 -9.2°
Maximum altitude 05:29:40 83° 278° (W) 1,004 4.0 -8.0°
Drops below altitude 10° 05:36:01 10° 6° (N) 2,753 6.3 -6.9°
Sets 05:38:32 0° 8° (N) 3,701 7.0 -6.5°
